Year,Month,Day,Hour,Minute,Value (Times are PST for temperature in C)
2017,06,26,00,00,21.70
2017,06,26,00,01,21.70
2017,06,26,00,02,21.70
2017,06,26,00,03,21.80
2017,06,26,00,04,21.80
2017,06,26,00,05,21.80
2017,06,26,00,06,21.80
2017,06,26,00,07,21.90
2017,06,26,00,08,21.90
2017,06,26,00,09,22.00
2017,06,26,00,10,22.10
2017,06,26,00,11,22.10
2017,06,26,00,12,22.10
2017,06,26,00,13,22.10
2017,06,26,00,14,22.20
2017,06,26,00,15,22.20
2017,06,26,00,16,22.20
2017,06,26,00,17,22.20
2017,06,26,00,18,22.20
2017,06,26,00,19,22.20
2017,06,26,00,20,22.20
2017,06,26,00,21,22.30
2017,06,26,00,22,22.30
2017,06,26,00,23,22.30
2017,06,26,00,24,22.30
2017,06,26,00,25,22.30
2017,06,26,00,26,22.30
2017,06,26,00,27,22.30
2017,06,26,00,28,22.30
2017,06,26,00,29,22.30
2017,06,26,00,30,22.20
2017,06,26,00,31,22.20
2017,06,26,00,32,22.10
2017,06,26,00,33,22.10
2017,06,26,00,34,22.10
2017,06,26,00,35,22.10
2017,06,26,00,36,22.00
2017,06,26,00,37,22.00
2017,06,26,00,38,22.00
2017,06,26,00,39,21.90
2017,06,26,00,40,21.90
2017,06,26,00,41,21.90
2017,06,26,00,42,21.90
2017,06,26,00,43,21.80
2017,06,26,00,44,21.80
2017,06,26,00,45,21.80
2017,06,26,00,46,21.80
2017,06,26,00,47,21.80
2017,06,26,00,48,21.80
2017,06,26,00,49,21.80
2017,06,26,00,50,21.90
2017,06,26,00,51,21.90
2017,06,26,00,52,21.90
2017,06,26,00,53,21.90
2017,06,26,00,54,21.80
2017,06,26,00,55,21.80
2017,06,26,00,56,21.70
2017,06,26,00,57,21.70
2017,06,26,00,58,21.60
2017,06,26,00,59,21.60
2017,06,26,01,00,21.60
2017,06,26,01,01,21.50
2017,06,26,01,02,21.50
2017,06,26,01,03,21.50
2017,06,26,01,04,21.40
2017,06,26,01,05,21.40
2017,06,26,01,06,21.40
2017,06,26,01,07,21.30
2017,06,26,01,08,21.30
2017,06,26,01,09,21.30
2017,06,26,01,10,21.30
2017,06,26,01,11,21.30
2017,06,26,01,12,21.30
2017,06,26,01,13,21.30
2017,06,26,01,14,21.30
2017,06,26,01,15,21.30
2017,06,26,01,16,21.30
2017,06,26,01,17,21.30
2017,06,26,01,18,21.30
2017,06,26,01,19,21.30
2017,06,26,01,20,21.30
2017,06,26,01,21,21.30
2017,06,26,01,22,21.30
2017,06,26,01,23,21.30
2017,06,26,01,24,21.30
2017,06,26,01,25,21.30
2017,06,26,01,26,21.30
2017,06,26,01,27,21.20
2017,06,26,01,28,21.20
2017,06,26,01,29,21.20
2017,06,26,01,30,21.10
2017,06,26,01,31,21.10
2017,06,26,01,32,21.10
2017,06,26,01,33,21.10
2017,06,26,01,34,21.10
2017,06,26,01,35,21.10
2017,06,26,01,36,21.10
2017,06,26,01,37,21.10
2017,06,26,01,38,21.10
2017,06,26,01,39,21.10
2017,06,26,01,40,21.10
2017,06,26,01,41,21.10
2017,06,26,01,42,21.10
2017,06,26,01,43,21.10
2017,06,26,01,44,21.20
2017,06,26,01,45,21.20
2017,06,26,01,46,21.20
2017,06,26,01,47,21.20
2017,06,26,01,48,21.20
2017,06,26,01,49,21.20
2017,06,26,01,50,21.20
2017,06,26,01,51,21.20
2017,06,26,01,52,21.20
2017,06,26,01,53,21.20
2017,06,26,01,54,21.30
2017,06,26,01,55,21.30
2017,06,26,01,56,21.30
2017,06,26,01,57,21.30
2017,06,26,01,58,21.30
2017,06,26,01,59,21.30
2017,06,26,02,00,21.30
2017,06,26,02,01,21.30
2017,06,26,02,02,21.20
2017,06,26,02,03,21.20
2017,06,26,02,04,21.20
2017,06,26,02,05,21.20
2017,06,26,02,06,21.20
2017,06,26,02,07,21.20
2017,06,26,02,08,21.20
2017,06,26,02,09,21.20
2017,06,26,02,10,21.10
2017,06,26,02,11,21.10
2017,06,26,02,12,21.10
2017,06,26,02,13,21.00
2017,06,26,02,14,21.00
2017,06,26,02,15,21.00
2017,06,26,02,16,21.00
2017,06,26,02,17,20.90
2017,06,26,02,18,20.90
2017,06,26,02,19,20.90
2017,06,26,02,20,20.90
2017,06,26,02,21,20.90
2017,06,26,02,22,21.00
2017,06,26,02,23,21.00
2017,06,26,02,24,21.00
2017,06,26,02,25,21.10
2017,06,26,02,26,21.10
2017,06,26,02,27,21.10
2017,06,26,02,28,21.10
2017,06,26,02,29,21.10
2017,06,26,02,30,21.10
2017,06,26,02,31,21.10
2017,06,26,02,32,21.10
2017,06,26,02,33,21.10
2017,06,26,02,34,21.10
2017,06,26,02,35,21.10
2017,06,26,02,36,21.10
2017,06,26,02,37,21.10
2017,06,26,02,38,21.10
2017,06,26,02,39,21.10
2017,06,26,02,40,21.10
2017,06,26,02,41,21.10
2017,06,26,02,42,21.00
2017,06,26,02,43,21.00
2017,06,26,02,44,21.00
2017,06,26,02,45,21.00
2017,06,26,02,46,21.00
2017,06,26,02,47,20.90
2017,06,26,02,48,20.90
2017,06,26,02,49,20.90
2017,06,26,02,50,20.90
2017,06,26,02,51,20.80
2017,06,26,02,52,20.80
2017,06,26,02,53,20.80
2017,06,26,02,54,20.80
2017,06,26,02,55,20.80
2017,06,26,02,56,20.80
2017,06,26,02,57,20.80
2017,06,26,02,58,20.80
2017,06,26,02,59,20.70
2017,06,26,03,00,20.70
2017,06,26,03,01,20.70
2017,06,26,03,02,20.70
2017,06,26,03,03,20.60
2017,06,26,03,04,20.60
2017,06,26,03,05,20.60
2017,06,26,03,06,20.50
2017,06,26,03,07,20.50
2017,06,26,03,08,20.50
2017,06,26,03,09,20.40
2017,06,26,03,10,20.40
2017,06,26,03,11,20.40
2017,06,26,03,12,20.30
2017,06,26,03,13,20.30
2017,06,26,03,14,20.30
2017,06,26,03,15,20.30
2017,06,26,03,16,20.30
2017,06,26,03,17,20.20
2017,06,26,03,18,20.20
2017,06,26,03,19,20.20
2017,06,26,03,20,20.10
2017,06,26,03,21,20.10
2017,06,26,03,22,20.10
2017,06,26,03,23,20.00
2017,06,26,03,24,20.00
2017,06,26,03,25,20.00
2017,06,26,03,26,19.90
2017,06,26,03,27,19.90
2017,06,26,03,28,19.90
2017,06,26,03,29,19.90
2017,06,26,03,30,19.90
2017,06,26,03,31,19.90
2017,06,26,03,32,19.90
2017,06,26,03,33,19.80
2017,06,26,03,34,19.80
2017,06,26,03,35,19.80
2017,06,26,03,36,19.80
2017,06,26,03,37,19.80
2017,06,26,03,38,19.80
2017,06,26,03,39,19.80
2017,06,26,03,40,19.70
2017,06,26,03,41,19.80
2017,06,26,03,42,19.80
2017,06,26,03,43,19.80
2017,06,26,03,44,19.70
2017,06,26,03,45,19.70
2017,06,26,03,46,19.70
2017,06,26,03,47,19.70
2017,06,26,03,48,19.70
2017,06,26,03,49,19.70
2017,06,26,03,50,19.70
2017,06,26,03,51,19.70
2017,06,26,03,52,19.60
2017,06,26,03,53,19.60
2017,06,26,03,54,19.60
2017,06,26,03,55,19.60
2017,06,26,03,56,19.60
2017,06,26,03,57,19.60
2017,06,26,03,58,19.50
2017,06,26,03,59,19.50
2017,06,26,04,00,19.50
2017,06,26,04,01,19.50
2017,06,26,04,02,19.50
2017,06,26,04,03,19.50
2017,06,26,04,04,19.50
2017,06,26,04,05,19.50
2017,06,26,04,06,19.50
2017,06,26,04,07,19.50
2017,06,26,04,08,19.50
2017,06,26,04,09,19.50
2017,06,26,04,10,19.50
2017,06,26,04,11,19.50
2017,06,26,04,12,19.50
2017,06,26,04,13,19.40
2017,06,26,04,14,19.40
2017,06,26,04,15,19.40
2017,06,26,04,16,19.40
2017,06,26,04,17,19.40
2017,06,26,04,18,19.40
2017,06,26,04,19,19.40
2017,06,26,04,20,19.30
2017,06,26,04,21,19.30
2017,06,26,04,22,19.30
2017,06,26,04,23,19.30
2017,06,26,04,24,19.30
2017,06,26,04,25,19.20
2017,06,26,04,26,19.20
2017,06,26,04,27,19.20
2017,06,26,04,28,19.10
2017,06,26,04,29,19.10
2017,06,26,04,30,19.10
2017,06,26,04,31,19.10
2017,06,26,04,32,19.10
2017,06,26,04,33,19.10
2017,06,26,04,34,19.00
2017,06,26,04,35,19.00
2017,06,26,04,36,19.00
2017,06,26,04,37,19.00
2017,06,26,04,38,19.00
2017,06,26,04,39,18.90
2017,06,26,04,40,18.90
2017,06,26,04,41,18.90
2017,06,26,04,42,18.80
2017,06,26,04,43,18.80
2017,06,26,04,44,18.80
2017,06,26,04,45,18.80
2017,06,26,04,46,18.70
2017,06,26,04,47,18.70
2017,06,26,04,48,18.70
2017,06,26,04,49,18.70
2017,06,26,04,50,18.60
2017,06,26,04,51,18.60
2017,06,26,04,52,18.60
2017,06,26,04,53,18.60
2017,06,26,04,54,18.50
2017,06,26,04,55,18.50
2017,06,26,04,56,18.40
2017,06,26,04,57,18.40
2017,06,26,04,58,18.40
2017,06,26,04,59,18.30
2017,06,26,05,00,18.30
2017,06,26,05,01,18.30
2017,06,26,05,02,18.30
2017,06,26,05,03,18.20
2017,06,26,05,04,18.20
2017,06,26,05,05,18.20
2017,06,26,05,06,18.20
2017,06,26,05,07,18.10
2017,06,26,05,08,18.10
2017,06,26,05,09,18.10
2017,06,26,05,10,18.10
2017,06,26,05,11,18.10
2017,06,26,05,12,18.10
2017,06,26,05,13,18.10
2017,06,26,05,14,18.10
2017,06,26,05,15,18.10
2017,06,26,05,16,18.10
2017,06,26,05,17,18.10
2017,06,26,05,18,18.10
2017,06,26,05,19,18.10
2017,06,26,05,20,18.00
2017,06,26,05,21,18.00
2017,06,26,05,22,18.00
2017,06,26,05,23,18.00
2017,06,26,05,24,18.00
2017,06,26,05,25,17.90
2017,06,26,05,26,17.90
2017,06,26,05,27,17.90
2017,06,26,05,28,17.90
2017,06,26,05,29,17.90
2017,06,26,05,30,17.80
2017,06,26,05,31,17.80
2017,06,26,05,32,17.80
2017,06,26,05,33,17.80
2017,06,26,05,34,17.80
2017,06,26,05,35,17.80
2017,06,26,05,36,17.80
2017,06,26,05,37,17.70
2017,06,26,05,38,17.70
2017,06,26,05,39,17.70
2017,06,26,05,40,17.70
2017,06,26,05,41,17.70
2017,06,26,05,42,17.70
2017,06,26,05,43,17.70
2017,06,26,05,44,17.70
2017,06,26,05,45,17.70
2017,06,26,05,46,17.70
2017,06,26,05,47,17.70
2017,06,26,05,48,17.70
2017,06,26,05,49,17.70
2017,06,26,05,50,17.70
2017,06,26,05,51,17.70
2017,06,26,05,52,17.70
2017,06,26,05,53,17.70
2017,06,26,05,54,17.70
2017,06,26,05,55,17.70
2017,06,26,05,56,17.70
2017,06,26,05,57,17.70
2017,06,26,05,58,17.70
2017,06,26,05,59,17.70
2017,06,26,06,00,17.70
2017,06,26,06,01,17.70
2017,06,26,06,02,17.70
2017,06,26,06,03,17.60
2017,06,26,06,04,17.60
2017,06,26,06,05,17.60
2017,06,26,06,06,17.60
2017,06,26,06,07,17.60
2017,06,26,06,08,17.60
2017,06,26,06,09,17.60
2017,06,26,06,10,17.60
2017,06,26,06,11,17.60
2017,06,26,06,12,17.60
2017,06,26,06,13,17.60
2017,06,26,06,14,17.60
2017,06,26,06,15,17.60
2017,06,26,06,16,17.60
2017,06,26,06,17,17.60
2017,06,26,06,18,17.60
2017,06,26,06,19,17.60
2017,06,26,06,20,17.60
2017,06,26,06,21,17.60
2017,06,26,06,22,17.60
2017,06,26,06,23,17.60
2017,06,26,06,24,17.60
2017,06,26,06,25,17.60
2017,06,26,06,26,17.60
2017,06,26,06,27,17.60
2017,06,26,06,28,17.60
2017,06,26,06,29,17.60
2017,06,26,06,30,17.60
2017,06,26,06,31,17.50
2017,06,26,06,32,17.50
2017,06,26,06,33,17.50
2017,06,26,06,34,17.50
2017,06,26,06,35,17.40
2017,06,26,06,36,17.40
2017,06,26,06,37,17.40
2017,06,26,06,38,17.40
2017,06,26,06,39,17.40
2017,06,26,06,40,17.40
2017,06,26,06,41,17.40
2017,06,26,06,42,17.40
2017,06,26,06,43,17.40
2017,06,26,06,44,17.40
2017,06,26,06,45,17.40
2017,06,26,06,46,17.40
2017,06,26,06,47,17.40
2017,06,26,06,48,17.40
2017,06,26,06,49,17.40
2017,06,26,06,50,17.40
2017,06,26,06,51,17.40
2017,06,26,06,52,17.40
2017,06,26,06,53,17.40
2017,06,26,06,54,17.40
2017,06,26,06,55,17.50
2017,06,26,06,56,17.50
2017,06,26,06,57,17.50
2017,06,26,06,58,17.50
2017,06,26,06,59,17.50
2017,06,26,07,00,17.60
2017,06,26,07,01,17.60
2017,06,26,07,02,17.60
2017,06,26,07,03,17.60
2017,06,26,07,04,17.70
2017,06,26,07,05,17.70
2017,06,26,07,06,17.70
2017,06,26,07,07,17.70
2017,06,26,07,08,17.70
2017,06,26,07,09,17.80
2017,06,26,07,10,17.80
2017,06,26,07,11,17.80
2017,06,26,07,12,17.80
2017,06,26,07,13,17.80
2017,06,26,07,14,17.70
2017,06,26,07,15,17.70
2017,06,26,07,16,17.70
2017,06,26,07,17,17.70
2017,06,26,07,18,17.70
2017,06,26,07,19,17.60
2017,06,26,07,20,17.60
2017,06,26,07,21,17.60
2017,06,26,07,22,17.60
2017,06,26,07,23,17.60
2017,06,26,07,24,17.50
2017,06,26,07,25,17.50
2017,06,26,07,26,17.40
2017,06,26,07,27,17.40
2017,06,26,07,28,17.30
2017,06,26,07,29,17.30
2017,06,26,07,30,17.30
2017,06,26,07,31,17.30
2017,06,26,07,32,17.30
2017,06,26,07,33,17.30
2017,06,26,07,34,17.30
2017,06,26,07,35,17.40
2017,06,26,07,36,17.40
2017,06,26,07,37,17.50
2017,06,26,07,38,17.50
2017,06,26,07,39,17.60
2017,06,26,07,40,17.70
2017,06,26,07,41,17.70
2017,06,26,07,42,17.80
2017,06,26,07,43,17.80
2017,06,26,07,44,17.90
2017,06,26,07,45,18.00
2017,06,26,07,46,18.10
2017,06,26,07,47,18.10
2017,06,26,07,48,18.10
2017,06,26,07,49,18.20
2017,06,26,07,50,18.20
2017,06,26,07,51,18.20
2017,06,26,07,52,18.30
2017,06,26,07,53,18.30
2017,06,26,07,54,18.40
2017,06,26,07,55,18.40
2017,06,26,07,56,18.40
2017,06,26,07,57,18.40
2017,06,26,07,58,18.40
2017,06,26,07,59,18.40
2017,06,26,08,00,18.40
2017,06,26,08,01,18.40
2017,06,26,08,02,18.40
2017,06,26,08,03,18.40
2017,06,26,08,04,18.30
2017,06,26,08,05,18.30
2017,06,26,08,06,18.30
2017,06,26,08,07,18.30
2017,06,26,08,08,18.30
2017,06,26,08,09,18.30
2017,06,26,08,10,18.30
2017,06,26,08,11,18.40
2017,06,26,08,12,18.40
2017,06,26,08,13,18.40
2017,06,26,08,14,18.40
2017,06,26,08,15,18.50
2017,06,26,08,16,18.50
2017,06,26,08,17,18.60
2017,06,26,08,18,18.60
2017,06,26,08,19,18.70
2017,06,26,08,20,18.70
2017,06,26,08,21,18.70
2017,06,26,08,22,18.80
2017,06,26,08,23,18.80
2017,06,26,08,24,18.80
2017,06,26,08,25,18.80
2017,06,26,08,26,18.80
2017,06,26,08,27,18.80
2017,06,26,08,28,18.80
2017,06,26,08,29,18.90
2017,06,26,08,30,18.90
2017,06,26,08,31,18.90
2017,06,26,08,32,19.00
2017,06,26,08,33,19.10
2017,06,26,08,34,19.20
2017,06,26,08,35,19.20
2017,06,26,08,36,19.20
2017,06,26,08,37,19.30
2017,06,26,08,38,19.30
2017,06,26,08,39,19.40
2017,06,26,08,40,19.40
2017,06,26,08,41,19.40
2017,06,26,08,42,19.40
2017,06,26,08,43,19.40
2017,06,26,08,44,19.40
2017,06,26,08,45,19.40
2017,06,26,08,46,19.50
2017,06,26,08,47,19.50
2017,06,26,08,48,19.60
2017,06,26,08,49,19.70
2017,06,26,08,50,19.70
2017,06,26,08,51,19.80
2017,06,26,08,52,19.90
2017,06,26,08,53,20.00
2017,06,26,08,54,20.10
2017,06,26,08,55,20.20
2017,06,26,08,56,20.30
2017,06,26,08,57,20.40
2017,06,26,08,58,20.40
2017,06,26,08,59,20.50
2017,06,26,09,00,20.60
2017,06,26,09,01,20.60
2017,06,26,09,02,20.60
2017,06,26,09,03,20.60
2017,06,26,09,04,20.60
2017,06,26,09,05,20.70
2017,06,26,09,06,20.70
2017,06,26,09,07,20.70
2017,06,26,09,08,20.80
2017,06,26,09,09,20.90
2017,06,26,09,10,21.00
2017,06,26,09,11,21.00
2017,06,26,09,12,21.10
2017,06,26,09,13,21.20
2017,06,26,09,14,21.20
2017,06,26,09,15,21.20
2017,06,26,09,16,21.20
2017,06,26,09,17,21.30
2017,06,26,09,18,21.30
2017,06,26,09,19,21.40
2017,06,26,09,20,21.40
2017,06,26,09,21,21.50
2017,06,26,09,22,21.50
2017,06,26,09,23,21.60
2017,06,26,09,24,21.70
2017,06,26,09,25,21.70
2017,06,26,09,26,21.70
2017,06,26,09,27,21.70
2017,06,26,09,28,21.70
2017,06,26,09,29,21.80
2017,06,26,09,30,21.90
2017,06,26,09,31,22.00
2017,06,26,09,32,22.10
2017,06,26,09,33,22.10
2017,06,26,09,34,22.10
2017,06,26,09,35,22.20
2017,06,26,09,36,22.20
2017,06,26,09,37,22.30
2017,06,26,09,38,22.20
2017,06,26,09,39,22.10
2017,06,26,09,40,22.10
2017,06,26,09,41,22.10
2017,06,26,09,42,22.20
2017,06,26,09,43,22.20
2017,06,26,09,44,22.30
2017,06,26,09,45,22.30
2017,06,26,09,46,22.20
2017,06,26,09,47,22.20
2017,06,26,09,48,22.20
2017,06,26,09,49,22.10
2017,06,26,09,50,22.10
2017,06,26,09,51,22.00
2017,06,26,09,52,22.00
2017,06,26,09,53,21.90
2017,06,26,09,54,21.70
2017,06,26,09,55,21.60
2017,06,26,09,56,21.50
2017,06,26,09,57,21.30
2017,06,26,09,58,21.20
2017,06,26,09,59,21.10
2017,06,26,10,00,20.90
2017,06,26,10,01,20.80
2017,06,26,10,02,20.70
2017,06,26,10,03,20.50
2017,06,26,10,04,20.40
2017,06,26,10,05,20.30
2017,06,26,10,06,20.30
2017,06,26,10,07,20.30
2017,06,26,10,08,20.30
2017,06,26,10,09,20.30
2017,06,26,10,10,20.30
2017,06,26,10,11,20.30
2017,06,26,10,12,20.30
2017,06,26,10,13,20.30
2017,06,26,10,14,20.30
2017,06,26,10,15,20.30
2017,06,26,10,16,20.30
2017,06,26,10,17,20.30
2017,06,26,10,18,20.30
2017,06,26,10,19,20.30
2017,06,26,10,20,20.40
2017,06,26,10,21,20.50
2017,06,26,10,22,20.60
2017,06,26,10,23,20.60
2017,06,26,10,24,20.60
2017,06,26,10,25,20.60
2017,06,26,10,26,20.70
2017,06,26,10,27,20.80
2017,06,26,10,28,20.90
2017,06,26,10,29,21.10
2017,06,26,10,30,21.10
2017,06,26,10,31,21.20
2017,06,26,10,32,21.20
2017,06,26,10,33,21.30
2017,06,26,10,34,21.30
2017,06,26,10,35,21.30
2017,06,26,10,36,21.20
2017,06,26,10,37,21.20
2017,06,26,10,38,21.20
2017,06,26,10,39,21.20
2017,06,26,10,40,21.20
2017,06,26,10,41,21.20
2017,06,26,10,42,21.30
2017,06,26,10,43,21.30
2017,06,26,10,44,21.30
2017,06,26,10,45,21.20
2017,06,26,10,46,21.20
2017,06,26,10,47,21.20
2017,06,26,10,48,21.20
2017,06,26,10,49,21.10
2017,06,26,10,50,21.00
2017,06,26,10,51,21.00
2017,06,26,10,52,21.00
2017,06,26,10,53,21.00
2017,06,26,10,54,20.90
2017,06,26,10,55,20.80
2017,06,26,10,56,20.80
2017,06,26,10,57,20.80
2017,06,26,10,58,20.90
2017,06,26,10,59,20.90
2017,06,26,11,00,20.90
2017,06,26,11,01,20.90
2017,06,26,11,02,20.80
2017,06,26,11,03,20.80
2017,06,26,11,04,20.80
2017,06,26,11,05,20.70
2017,06,26,11,06,20.70
2017,06,26,11,07,20.60
2017,06,26,11,08,20.60
2017,06,26,11,09,20.50
2017,06,26,11,10,20.50
2017,06,26,11,11,20.40
2017,06,26,11,12,20.40
2017,06,26,11,13,20.40
2017,06,26,11,14,20.40
2017,06,26,11,15,20.40
2017,06,26,11,16,20.40
2017,06,26,11,17,20.50
2017,06,26,11,18,20.60
2017,06,26,11,19,20.70
2017,06,26,11,20,20.70
2017,06,26,11,21,20.70
2017,06,26,11,22,20.80
2017,06,26,11,23,20.80
2017,06,26,11,24,20.90
2017,06,26,11,25,20.90
2017,06,26,11,26,21.00
2017,06,26,11,27,21.10
2017,06,26,11,28,21.20
2017,06,26,11,29,21.20
2017,06,26,11,30,21.20
2017,06,26,11,31,21.20
2017,06,26,11,32,21.10
2017,06,26,11,33,21.10
2017,06,26,11,34,21.10
2017,06,26,11,35,21.20
2017,06,26,11,36,21.20
2017,06,26,11,37,21.30
2017,06,26,11,38,21.50
2017,06,26,11,39,21.60
2017,06,26,11,40,21.60
2017,06,26,11,41,21.60
2017,06,26,11,42,21.70
2017,06,26,11,43,21.70
2017,06,26,11,44,21.70
2017,06,26,11,45,21.70
2017,06,26,11,46,21.80
2017,06,26,11,47,21.80
2017,06,26,11,48,21.90
2017,06,26,11,49,21.90
2017,06,26,11,50,21.90
2017,06,26,11,51,22.00
2017,06,26,11,52,22.00
2017,06,26,11,53,22.10
2017,06,26,11,54,22.20
2017,06,26,11,55,22.30
2017,06,26,11,56,22.40
2017,06,26,11,57,22.50
2017,06,26,11,58,22.50
2017,06,26,11,59,22.40
2017,06,26,12,00,22.40
2017,06,26,12,01,22.40
2017,06,26,12,02,22.40
2017,06,26,12,03,22.40
2017,06,26,12,04,22.40
2017,06,26,12,05,22.50
2017,06,26,12,06,22.60
2017,06,26,12,07,22.70
2017,06,26,12,08,22.80
2017,06,26,12,09,22.90
2017,06,26,12,10,22.90
2017,06,26,12,11,22.80
2017,06,26,12,12,22.80
2017,06,26,12,13,22.80
2017,06,26,12,14,22.80
2017,06,26,12,15,22.90
2017,06,26,12,16,22.90
2017,06,26,12,17,23.00
2017,06,26,12,18,23.00
2017,06,26,12,19,23.10
2017,06,26,12,20,23.30
2017,06,26,12,21,23.30
2017,06,26,12,22,23.30
2017,06,26,12,23,23.30
2017,06,26,12,24,23.30
2017,06,26,12,25,23.30
2017,06,26,12,26,23.30
2017,06,26,12,27,23.30
2017,06,26,12,28,23.30
2017,06,26,12,29,23.40
2017,06,26,12,30,23.50
2017,06,26,12,31,23.60
2017,06,26,12,32,23.70
2017,06,26,12,33,23.80
2017,06,26,12,34,23.80
2017,06,26,12,35,23.90
2017,06,26,12,36,23.90
2017,06,26,12,37,24.00
2017,06,26,12,38,24.00
2017,06,26,12,39,23.90
2017,06,26,12,40,23.80
2017,06,26,12,41,23.70
2017,06,26,12,42,23.60
2017,06,26,12,43,23.60
2017,06,26,12,44,23.50
2017,06,26,12,45,23.40
2017,06,26,12,46,23.40
2017,06,26,12,47,23.40
2017,06,26,12,48,23.50
2017,06,26,12,49,23.50
2017,06,26,12,50,23.60
2017,06,26,12,51,23.70
2017,06,26,12,52,23.70
2017,06,26,12,53,23.70
2017,06,26,12,54,23.70
2017,06,26,12,55,23.70
2017,06,26,12,56,23.80
2017,06,26,12,57,23.80
2017,06,26,12,58,23.80
2017,06,26,12,59,23.70
2017,06,26,13,00,23.80
2017,06,26,13,01,23.80
2017,06,26,13,02,23.90
2017,06,26,13,03,24.10
2017,06,26,13,04,24.30
2017,06,26,13,05,24.40
2017,06,26,13,06,24.50
2017,06,26,13,07,24.60
2017,06,26,13,08,24.60
2017,06,26,13,09,24.60
2017,06,26,13,10,24.60
2017,06,26,13,11,24.60
2017,06,26,13,12,24.60
2017,06,26,13,13,24.50
2017,06,26,13,14,24.60
2017,06,26,13,15,24.70
2017,06,26,13,16,24.80
2017,06,26,13,17,24.80
2017,06,26,13,18,24.70
2017,06,26,13,19,24.60
2017,06,26,13,20,24.60
2017,06,26,13,21,24.50
2017,06,26,13,22,24.40
2017,06,26,13,23,24.30
2017,06,26,13,24,24.20
2017,06,26,13,25,24.10
2017,06,26,13,26,24.10
2017,06,26,13,27,24.20
2017,06,26,13,28,24.20
2017,06,26,13,29,24.20
2017,06,26,13,30,24.20
2017,06,26,13,31,24.20
2017,06,26,13,32,24.20
2017,06,26,13,33,24.20
2017,06,26,13,34,24.20
2017,06,26,13,35,24.30
2017,06,26,13,36,24.30
2017,06,26,13,37,24.40
2017,06,26,13,38,24.30
2017,06,26,13,39,24.20
2017,06,26,13,40,24.20
2017,06,26,13,41,24.30
2017,06,26,13,42,24.40
2017,06,26,13,43,24.60
2017,06,26,13,44,24.80
2017,06,26,13,45,24.80
2017,06,26,13,46,24.80
2017,06,26,13,47,24.90
2017,06,26,13,48,24.90
2017,06,26,13,49,24.90
2017,06,26,13,50,24.90
2017,06,26,13,51,24.90
2017,06,26,13,52,24.90
2017,06,26,13,53,24.90
2017,06,26,13,54,24.80
2017,06,26,13,55,24.70
2017,06,26,13,56,24.60
2017,06,26,13,57,24.60
2017,06,26,13,58,24.50
2017,06,26,13,59,24.50
2017,06,26,14,00,24.60
2017,06,26,14,01,24.60
2017,06,26,14,02,24.60
2017,06,26,14,03,24.70
2017,06,26,14,04,24.70
2017,06,26,14,05,24.70
2017,06,26,14,06,24.60
2017,06,26,14,07,24.60
2017,06,26,14,08,24.50
2017,06,26,14,09,24.40
2017,06,26,14,10,24.20
2017,06,26,14,11,24.10
2017,06,26,14,12,23.90
2017,06,26,14,13,23.70
2017,06,26,14,14,23.60
2017,06,26,14,15,23.40
2017,06,26,14,16,23.30
2017,06,26,14,17,23.30
2017,06,26,14,18,23.30
2017,06,26,14,19,23.30
2017,06,26,14,20,23.40
2017,06,26,14,21,23.40
2017,06,26,14,22,23.40
2017,06,26,14,23,23.20
2017,06,26,14,24,22.90
2017,06,26,14,25,22.60
2017,06,26,14,26,22.50
2017,06,26,14,27,22.40
2017,06,26,14,28,22.30
2017,06,26,14,29,22.40
2017,06,26,14,30,22.40
2017,06,26,14,31,22.50
2017,06,26,14,32,22.60
2017,06,26,14,33,22.60
2017,06,26,14,34,22.80
2017,06,26,14,35,22.80
2017,06,26,14,36,22.70
2017,06,26,14,37,22.60
2017,06,26,14,38,22.50
2017,06,26,14,39,22.40
2017,06,26,14,40,22.40
2017,06,26,14,41,22.40
2017,06,26,14,42,22.30
2017,06,26,14,43,22.40
2017,06,26,14,44,22.60
2017,06,26,14,45,22.80
2017,06,26,14,46,22.90
2017,06,26,14,47,22.80
2017,06,26,14,48,22.80
2017,06,26,14,49,22.80
2017,06,26,14,50,22.70
2017,06,26,14,51,22.70
2017,06,26,14,52,22.80
2017,06,26,14,53,23.00
2017,06,26,14,54,23.20
2017,06,26,14,55,23.40
2017,06,26,14,56,23.60
2017,06,26,14,57,23.80
2017,06,26,14,58,23.70
2017,06,26,14,59,23.70
2017,06,26,15,00,23.60
2017,06,26,15,01,23.60
2017,06,26,15,02,23.60
2017,06,26,15,03,23.70
2017,06,26,15,04,23.80
2017,06,26,15,05,23.70
2017,06,26,15,06,23.60
2017,06,26,15,07,23.50
2017,06,26,15,08,23.40
2017,06,26,15,09,23.20
2017,06,26,15,10,23.10
2017,06,26,15,11,23.10
2017,06,26,15,12,23.00
2017,06,26,15,13,23.00
2017,06,26,15,14,22.90
2017,06,26,15,15,22.90
2017,06,26,15,16,23.00
2017,06,26,15,17,23.00
2017,06,26,15,18,23.30
2017,06,26,15,19,23.40
2017,06,26,15,20,23.30
2017,06,26,15,21,23.20
2017,06,26,15,22,23.20
2017,06,26,15,23,23.30
2017,06,26,15,24,23.30
2017,06,26,15,25,23.20
2017,06,26,15,26,23.00
2017,06,26,15,27,22.90
2017,06,26,15,28,22.80
2017,06,26,15,29,22.80
2017,06,26,15,30,22.80
2017,06,26,15,31,22.80
2017,06,26,15,32,22.90
2017,06,26,15,33,23.00
2017,06,26,15,34,23.10
2017,06,26,15,35,23.20
2017,06,26,15,36,23.10
2017,06,26,15,37,23.00
2017,06,26,15,38,23.00
2017,06,26,15,39,23.00
2017,06,26,15,40,23.10
2017,06,26,15,41,23.20
2017,06,26,15,42,23.30
2017,06,26,15,43,23.40
2017,06,26,15,44,23.40
2017,06,26,15,45,23.40
2017,06,26,15,46,23.40
2017,06,26,15,47,23.40
2017,06,26,15,48,23.50
2017,06,26,15,49,23.50
2017,06,26,15,50,23.50
2017,06,26,15,51,23.60
2017,06,26,15,52,23.60
2017,06,26,15,53,23.60
2017,06,26,15,54,23.60
2017,06,26,15,55,23.60
2017,06,26,15,56,23.60
2017,06,26,15,57,23.60
2017,06,26,15,58,23.70
2017,06,26,15,59,23.80
2017,06,26,16,00,23.80
2017,06,26,16,01,23.90
2017,06,26,16,02,23.90
2017,06,26,16,03,24.00
2017,06,26,16,04,24.00
2017,06,26,16,05,24.00
2017,06,26,16,06,24.10
2017,06,26,16,07,24.10
2017,06,26,16,08,24.10
2017,06,26,16,09,24.10
2017,06,26,16,10,24.10
2017,06,26,16,11,24.00
2017,06,26,16,12,23.90
2017,06,26,16,13,23.90
2017,06,26,16,14,23.80
2017,06,26,16,15,23.80
2017,06,26,16,16,23.80
2017,06,26,16,17,23.60
2017,06,26,16,18,23.40
2017,06,26,16,19,23.30
2017,06,26,16,20,23.30
2017,06,26,16,21,23.10
2017,06,26,16,22,23.10
2017,06,26,16,23,23.20
2017,06,26,16,24,23.20
2017,06,26,16,25,23.20
2017,06,26,16,26,23.10
2017,06,26,16,27,22.90
2017,06,26,16,28,22.60
2017,06,26,16,29,22.30
2017,06,26,16,30,22.00
2017,06,26,16,31,21.90
2017,06,26,16,32,21.80
2017,06,26,16,33,21.70
2017,06,26,16,34,21.70
2017,06,26,16,35,21.70
2017,06,26,16,36,21.70
2017,06,26,16,37,21.70
2017,06,26,16,38,21.70
2017,06,26,16,39,21.70
2017,06,26,16,40,21.70
2017,06,26,16,41,21.80
2017,06,26,16,42,21.90
2017,06,26,16,43,22.00
2017,06,26,16,44,22.10
2017,06,26,16,45,22.20
2017,06,26,16,46,22.40
2017,06,26,16,47,22.50
2017,06,26,16,48,22.60
2017,06,26,16,49,22.60
2017,06,26,16,50,22.60
2017,06,26,16,51,22.70
2017,06,26,16,52,22.70
2017,06,26,16,53,22.70
2017,06,26,16,54,22.80
2017,06,26,16,55,22.90
2017,06,26,16,56,22.90
2017,06,26,16,57,23.00
2017,06,26,16,58,23.10
2017,06,26,16,59,23.20
2017,06,26,17,00,23.40
2017,06,26,17,01,23.40
2017,06,26,17,02,23.40
2017,06,26,17,03,23.40
2017,06,26,17,04,23.20
2017,06,26,17,05,23.10
2017,06,26,17,06,23.00
2017,06,26,17,07,22.80
2017,06,26,17,08,22.60
2017,06,26,17,09,22.50
2017,06,26,17,10,22.40
2017,06,26,17,11,22.30
2017,06,26,17,12,22.20
2017,06,26,17,13,22.20
2017,06,26,17,14,22.20
2017,06,26,17,15,22.20
2017,06,26,17,16,22.20
2017,06,26,17,17,22.20
2017,06,26,17,18,22.20
2017,06,26,17,19,22.30